FW4212 Weather Reports


Display with metric or nautical units.
time (UTC)temp
F
wind
direction
speed
MPH
gust
MPH
rain 1hr
in
rain 24hr
in
rain mn
in
humidity
%
barometer
mb
20200403232512 68 303 2.0 5.0 0.00 0.00 0.00 29 1012.4
20200403232013 69 39 1.0 12.0 0.00 0.00 0.00 29 1012.2
20200403231515 69 331 3.0 12.0 0.00 0.00 0.00 28 1012.2
20200403231008 70 19 3.0 8.0 0.00 0.00 0.00 28 1012.2
20200403230508 71 322 2.0 6.0 0.00 0.00 0.00 26 1012.2
20200403230009 71 309 0.0 6.0 0.00 0.00 0.00 26 1012.2
20200403225508 71 311 0.0 6.0 0.00 0.00 0.00 27 1012.2
20200403225009 71 355 0.0 4.0 0.00 0.00 0.00 27 1012.2
20200403224532 71 329 1.0 9.0 0.00 0.00 0.00 26 1012.1
20200403224010 72 62 3.0 9.0 0.00 0.00 0.00 26 1012.2
20200403223512 72 9 1.0 6.0 0.00 0.00 0.00 26 1012.1
20200403223023 72 5 1.0 6.0 0.00 0.00 0.00 26 1012.1
20200403222507 72 277 1.0 9.0 0.00 0.00 0.00 28 1012.1
20200403222011 72 284 3.0 9.0 0.00 0.00 0.00 27 1012.0
20200403221512 71 330 3.0 7.0 0.00 0.00 0.00 25 1012.0
20200403221008 71 319 2.0 10.0 0.00 0.00 0.00 26 1012.0
20200403220507 71 311 2.0 10.0 0.00 0.00 0.00 26 1012.0
20200403220012 71 5 2.0 8.0 0.00 0.00 0.00 25 1012.0
20200403215519 72 276 3.0 9.0 0.00 0.00 0.00 25 1012.1
20200403215009 71 291 1.0 10.0 0.00 0.00 0.00 26 1012.0
20200403214506 71 312 2.0 9.0 0.00 0.00 0.00 26 1012.0
20200403214009 71 298 3.0 9.0 0.00 0.00 0.00 26 1012.1
20200403213510 70 302 4.0 8.0 0.00 0.00 0.00 26 1012.0
20200403213006 71 288 3.0 10.0 0.00 0.00 0.00 25 1012.1
20200403212509 71 279 4.0 10.0 0.00 0.00 0.00 25 1012.0
20200403212010 71 298 4.0 9.0 0.00 0.00 0.00 24 1012.0
20200403211506 71 282 3.0 7.0 0.00 0.00 0.00 25 1012.0
20200403211005 71 329 2.0 7.0 0.00 0.00 0.00 27 1011.9
20200403210507 71 309 3.0 10.0 0.00 0.00 0.00 24 1012.0
20200403210016 71 299 4.0 10.0 0.00 0.00 0.00 24 1012.1
20200403205506 71 300 3.0 7.0 0.00 0.00 0.00 24 1012.1
20200403205010 71 266 2.0 8.0 0.00 0.00 0.00 24 1012.1
20200403204521 72 324 4.0 9.0 0.00 0.00 0.00 24 1012.1
20200403203502 73 284 3.0 8.0 0.00 0.00 0.00 24 1012.2
20200403203006 72 325 2.0 10.0 0.00 0.00 0.00 24 1012.1
20200403202502 73 297 5.0 10.0 0.00 0.00 0.00 21 1012.1
20200403202003 72 325 4.0 9.0 0.00 0.00 0.00 22 1012.3
20200403200600 74 325 4.0 10.0 0.00 0.00 0.00 20 1012.4
20200403200147 74 338 3.0 8.0 0.00 0.00 0.00 21 1012.5
20200403195606 73 312 3.0 8.0 0.00 0.00 0.00 20 1012.5
20200403195111 72 32 3.0 15.0 0.00 0.00 0.00 22 1012.5
20200403194647 72 313 6.0 15.0 0.00 0.00 0.00 22 1012.6
20200403194101 72 284 4.0 11.0 0.00 0.00 0.00 24 1012.7
20200403193554 72 261 5.0 11.0 0.00 0.00 0.00 23 1012.7
20200403193146 73 290 6.0 11.0 0.00 0.00 0.00 21 1012.9
20200403192553 73 324 2.0 11.0 0.00 0.00 0.00 23 1012.9
20200403192056 73 257 3.0 13.0 0.00 0.00 0.00 22 1012.9
20200403191623 73 299 3.0 13.0 0.00 0.00 0.00 21 1013.0
20200403191055 73 333 3.0 5.0 0.00 0.00 0.00 22 1012.9
20200403190557 72 308 2.0 9.0 0.00 0.00 0.00 23 1013.0
20200403190149 72 267 4.0 10.0 0.00 0.00 0.00 22 1012.9
20200403185553 72 298 4.0 8.0 0.00 0.00 0.00 21 1013.1
20200403185050 72 119 2.0 6.0 0.00 0.00 0.00 21 1013.0
20200403184722 72 360 3.0 9.0 0.00 0.00 0.00 22 1013.0
20200403184048 72 279 2.0 8.0 0.00 0.00 0.00 23 1013.2
20200403183602 72 340 5.0 11.0 0.00 0.00 0.00 22 1013.4
20200403183157 71 333 3.0 12.0 0.00 0.00 0.00 21 1013.5
20200403182552 71 296 6.0 12.0 0.00 0.00 0.00 22 1013.4
20200403182106 71 317 4.0 11.0 0.00 0.00 0.00 22 1013.3
20200403181634 71 279 4.0 17.0 0.00 0.00 0.00 22 1013.4
20200403181046 71 269 4.0 17.0 0.00 0.00 0.00 22 1013.5
20200403180544 71 272 6.0 10.0 0.00 0.00 0.00 22 1013.7
20200403180126 71 290 4.0 9.0 0.00 0.00 0.00 22 1013.8
20200403175551 72 306 4.0 9.0 0.00 0.00 0.00 22 1014.0
20200403175046 72 325 4.0 9.0 0.00 0.00 0.00 21 1014.0
20200403174646 72 350 3.0 8.0 0.00 0.00 0.00 24 1013.9
20200403174042 72 19 2.0 6.0 0.00 0.00 0.00 22 1014.2
20200403173541 71 318 3.0 11.0 0.00 0.00 0.00 22 1014.2
20200403173126 71 337 3.0 11.0 0.00 0.00 0.00 21 1014.2
20200403172539 70 23 3.0 6.0 0.00 0.00 0.00 21 1014.3
20200403172038 70 329 2.0 9.0 0.00 0.00 0.00 20 1014.3
20200403171547 70 9 3.0 9.0 0.00 0.00 0.00 23 1014.5
20200403171037 70 268 3.0 6.0 0.00 0.00 0.00 22 1014.6
20200403170534 70 351 2.0 6.0 0.00 0.00 0.00 22 1014.6
20200403170043 70 298 2.0 8.0 0.00 0.00 0.00 25 1014.7
20200403165533 69 345 2.0 9.0 0.00 0.00 0.00 24 1014.8
20200403165032 68 15 2.0 11.0 0.00 0.00 0.00 25 1014.9
20200403164538 68 312 4.0 11.0 0.00 0.00 0.00 25 1014.9
20200403164035 68 310 4.0 10.0 0.00 0.00 0.00 25 1015.0
20200403163657 68 360 3.0 8.0 0.00 0.00 0.00 23 1015.1
20200403163118 68 30 3.0 8.0 0.00 0.00 0.00 25 1015.3
20200403162528 68 48 2.0 6.0 0.00 0.00 0.00 25 1015.3
20200403162027 67 238 2.0 6.0 0.00 0.00 0.00 26 1015.4
20200403161548 66 43 1.0 9.0 0.00 0.00 0.00 26 1015.5
20200403161025 66 305 4.0 10.0 0.00 0.00 0.00 28 1015.6
20200403160523 65 299 3.0 10.0 0.00 0.00 0.00 25 1015.6
20200403160103 65 277 2.0 8.0 0.00 0.00 0.00 28 1015.7
20200403155522 65 309 2.0 8.0 0.00 0.00 0.00 28 1015.7
20200403155033 64 331 3.0 13.0 0.00 0.00 0.00 27 1015.9
20200403154534 64 270 3.0 13.0 0.00 0.00 0.00 29 1015.9
20200403154028 64 303 2.0 10.0 0.00 0.00 0.00 31 1016.0
20200403153519 63 292 5.0 10.0 0.00 0.00 0.00 28 1015.9
20200403153026 64 5 3.0 5.0 0.00 0.00 0.00 28 1016.0
20200403152517 63 325 2.0 7.0 0.00 0.00 0.00 32 1016.0
20200403152016 62 325 1.0 7.0 0.00 0.00 0.00 33 1016.2
20200403151515 62 13 2.0 9.0 0.00 0.00 0.00 34 1016.1
20200403151014 61 307 2.0 9.0 0.00 0.00 0.00 35 1016.2
20200403150523 62 355 0.0 8.0 0.00 0.00 0.00 34 1016.2
20200403150016 60 294 2.0 8.0 0.00 0.00 0.00 37 1016.2
20200403145511 60 296 0.0 8.0 0.00 0.00 0.00 39 1016.1
20200403145014 59 306 2.0 6.0 0.00 0.00 0.00 39 1016.2
20200403144520 58 273 2.0 6.0 0.00 0.00 0.00 44 1016.3
20200403144009 58 229 3.0 5.0 0.00 0.00 0.00 45 1016.3
20200403143512 58 284 3.0 5.0 0.00 0.00 0.00 46 1016.3
20200403143019 57 227 2.0 4.0 0.00 0.00 0.00 46 1016.2
20200403142508 56 295 1.0 4.0 0.00 0.00 0.00 48 1016.2
20200403142004 55 238 1.0 4.0 0.00 0.00 0.00 44 1016.2
20200403141524 55 255 1.0 5.0 0.00 0.00 0.00 45 1016.3
20200403141004 55 257 1.0 7.0 0.00 0.00 0.00 46 1016.2
20200403140502 55 227 2.0 7.0 0.00 0.00 0.00 45 1016.2
20200403140245 55 302 1.0 4.0 0.00 0.00 0.00 49 1016.1
20200403135559 54 269 1.0 4.0 0.00 0.00 0.00 47 1016.1
20200403135102 54 252 2.0 4.0 0.00 0.00 0.00 48 1016.1
20200403134851 54 263 1.0 4.0 0.00 0.00 0.00 47 1016.1
20200403134103 54 240 2.0 4.0 0.00 0.00 0.00 48 1016.1
20200403133558 54 282 2.0 4.0 0.00 0.00 0.00 49 1016.1
20200403133212 54 298 1.0 3.0 0.00 0.00 0.00 47 1016.1
20200403132603 54 355 0.0 3.0 0.00 0.00 0.00 47 1016.1
20200403132108 54 355 1.0 3.0 0.00 0.00 0.00 46 1016.1
20200403131849 54 13 0.0 2.0 0.00 0.00 0.00 49 1016.2
20200403131058 54 13 0.0 2.0 0.00 0.00 0.00 50 1016.2
20200403130600 54 15 0.0 1.0 0.00 0.00 0.00 48 1016.3
20200403130137 54 227 0.0 4.0 0.00 0.00 0.00 46 1016.3
20200403125556 54 67 0.0 3.0 0.00 0.00 0.00 50 1016.4
20200403125105 54 273 1.0 3.0 0.00 0.00 0.00 48 1016.4
20200403124600 54 246 0.0 2.0 0.00 0.00 0.00 50 1016.4
20200403123558 53 94 0.0 3.0 0.00 0.00 0.00 53 1016.4
20200403123123 53 86 1.0 7.0 0.00 0.00 0.00 49 1016.3
20200403122551 53 73 2.0 4.0 0.00 0.00 0.00 50 1016.4
20200403122047 52 164 0.0 3.0 0.00 0.00 0.00 50 1016.4
20200403121606 51 67 0.0 3.0 0.00 0.00 0.00 54 1016.4
20200403121048 50 255 0.0 4.0 0.00 0.00 0.00 55 1016.4
20200403120544 49 360 1.0 4.0 0.00 0.00 0.00 54 1016.4
20200403115613 48 158 0.0 0.0 0.00 0.00 0.00 57 1016.4
20200403115043 47 187 0.0 1.0 0.00 0.00 0.00 59 1016.4
20200403114542 47 187 0.0 2.0 0.00 0.00 0.00 57 1016.2
20200403114059 47 187 0.0 2.0 0.00 0.00 0.00 58 1016.1
20200403113541 47 187 0.0 2.0 0.00 0.00 0.00 58 1016.3
20200403113206 47 187 0.0 0.0 0.00 0.00 0.00 58 1016.2
20200403112539 47 187 0.0 1.0 0.00 0.00 0.00 58 1016.0
20200403112040 47 187 0.0 1.0 0.00 0.00 0.00 58 1016.0
20200403111608 47 178 0.0 2.0 0.00 0.00 0.00 58 1016.0
20200403111040 47 284 0.0 2.0 0.00 0.00 0.00 57 1015.9
20200403110549 47 311 0.0 1.0 0.00 0.00 0.00 57 1015.8
20200403110048 47 311 0.0 2.0 0.00 0.00 0.00 57 1015.8
20200403105539 47 311 0.0 3.0 0.00 0.00 0.00 57 1015.8
20200403105038 47 296 0.0 3.0 0.00 0.00 0.00 57 1015.7
20200403104559 48 297 0.0 3.0 0.00 0.00 0.00 57 1015.6
20200403104039 48 297 0.0 7.0 0.00 0.00 0.00 57 1015.6
20200403103541 48 330 2.0 7.0 0.00 0.00 0.00 57 1015.5
20200403103147 48 325 0.0 3.0 0.00 0.00 0.00 56 1015.5
20200403102541 48 297 0.0 3.0 0.00 0.00 0.00 57 1015.5
20200403102038 48 321 1.0 4.0 0.00 0.00 0.00 57 1015.5
20200403101542 49 295 1.0 5.0 0.00 0.00 0.00 57 1015.5
20200403101044 48 298 2.0 5.0 0.00 0.00 0.00 57 1015.4
20200403100536 48 296 1.0 4.0 0.00 0.00 0.00 57 1015.3
20200403100144 48 53 1.0 5.0 0.00 0.00 0.00 57 1015.3
20200403095540 48 315 1.0 5.0 0.00 0.00 0.00 59 1015.3
20200403095048 48 308 2.0 10.0 0.00 0.00 0.00 57 1015.3
20200403094559 48 282 1.0 8.0 0.00 0.00 0.00 59 1015.3
20200403094036 48 301 1.0 5.0 0.00 0.00 0.00 58 1015.3
20200403093535 47 294 1.0 5.0 0.00 0.00 0.00 59 1015.3
20200403093058 47 316 2.0 4.0 0.00 0.00 0.00 60 1015.3
20200403092630 46 323 2.0 4.0 0.00 0.00 0.00 62 1015.4
20200403092039 46 320 1.0 3.0 0.00 0.00 0.00 63 1015.2
20200403091034 46 320 0.0 1.0 0.00 0.00 0.00 63 1015.3
20200403090533 46 320 0.0 1.0 0.00 0.00 0.00 62 1015.4
20200403090123 46 320 0.0 1.0 0.00 0.00 0.00 63 1015.4
20200403085538 47 320 0.0 3.0 0.00 0.00 0.00 63 1015.4
20200403085035 47 320 1.0 3.0 0.00 0.00 0.00 62 1015.5
20200403084615 47 304 0.0 3.0 0.00 0.00 0.00 62 1015.5
20200403084035 47 313 1.0 3.0 0.00 0.00 0.00 62 1015.5
20200403083532 47 313 1.0 3.0 0.00 0.00 0.00 63 1015.3
20200403083105 46 314 1.0 3.0 0.00 0.00 0.00 64 1015.3
20200403082532 46 315 1.0 3.0 0.00 0.00 0.00 64 1015.3
20200403082033 46 20 0.0 2.0 0.00 0.00 0.00 64 1015.3
20200403081621 46 20 0.0 2.0 0.00 0.00 0.00 65 1015.4
20200403081032 45 20 0.0 2.0 0.00 0.00 0.00 65 1015.4
20200403080535 45 24 0.0 3.0 0.00 0.00 0.00 66 1015.3
20200403080046 45 24 0.0 3.0 0.00 0.00 0.00 67 1015.3
20200403075532 45 328 0.0 0.0 0.00 0.00 0.00 68 1015.3
20200403075034 44 328 0.0 1.0 0.00 0.00 0.00 69 1015.2
20200403074542 44 328 0.0 2.0 0.00 0.00 0.00 69 1015.3
20200403074031 43 328 0.0 1.0 0.00 0.00 0.00 70 1015.2
20200403073534 42 328 0.0 0.0 0.00 0.00 0.00 73 1015.4
20200403073109 41 328 0.0 0.0 0.00 0.00 0.00 76 1015.3
20200403072529 41 328 0.0 0.0 0.00 0.00 0.00 78 1015.3
20200403072029 41 328 0.0 0.0 0.00 0.00 0.00 77 1015.3
20200403071715 42 328 0.0 0.0 0.00 0.00 0.00 76 1015.4
20200403071030 42 328 0.0 0.0 0.00 0.00 0.00 75 1015.4
20200403070526 42 318 0.0 1.0 0.00 0.00 0.00 73 1015.4
20200403070059 42 267 0.0 2.0 0.00 0.00 0.00 71 1015.3
20200403065524 43 267 0.0 3.0 0.00 0.00 0.00 71 1015.4
20200403065032 43 311 0.0 2.0 0.00 0.00 0.00 70 1015.4
20200403064529 45 311 0.0 1.0 0.00 0.00 0.00 68 1015.4
20200403064025 46 311 0.0 2.0 0.00 0.00 0.00 65 1015.4
20200403063525 47 311 0.0 2.0 0.00 0.00 0.00 65 1015.4
20200403063046 47 311 0.0 2.0 0.00 0.00 0.00 64 1015.4
20200403062518 47 311 0.0 2.0 0.00 0.00 0.00 62 1015.5
20200403062021 46 311 0.0 2.0 0.00 0.00 0.00 63 1015.6
20200403061528 47 311 0.0 1.0 0.00 0.00 0.00 63 1015.7
20200403061016 47 311 0.0 2.0 0.00 0.00 0.00 63 1015.6
20200403060515 47 311 1.0 2.0 0.00 0.00 0.00 62 1015.6
20200403060029 47 311 0.0 2.0 0.00 0.00 0.00 62 1015.7
20200403055518 48 311 0.0 0.0 0.00 0.00 0.00 61 1015.7
20200403055015 48 311 0.0 0.0 0.00 0.00 0.00 60 1015.7
20200403054604 49 311 0.0 2.0 0.00 0.00 0.00 58 1015.7
20200403054033 49 311 0.0 2.0 0.00 0.00 0.00 58 1015.8
20200403053519 49 24 0.0 3.0 0.00 0.00 0.00 60 1015.7
20200403053023 50 233 1.0 4.0 0.00 0.00 0.00 57 1015.6
20200403052512 49 250 1.0 4.0 0.00 0.00 0.00 57 1015.6
20200403052018 50 293 0.0 3.0 0.00 0.00 0.00 56 1015.7
20200403051523 50 272 2.0 4.0 0.00 0.00 0.00 57 1015.8
20200403051010 49 215 1.0 3.0 0.00 0.00 0.00 57 1015.7
20200403050509 48 213 0.0 3.0 0.00 0.00 0.00 57 1015.7
20200403050011 48 273 0.0 4.0 0.00 0.00 0.00 59 1015.9
20200403045513 48 231 1.0 4.0 0.00 0.00 0.00 59 1016.0
20200403045011 48 270 0.0 0.0 0.00 0.00 0.00 60 1015.9
20200403044532 48 270 0.0 3.0 0.00 0.00 0.00 60 1015.9
20200403044010 48 294 0.0 3.0 0.00 0.00 0.00 61 1016.0
20200403043507 47 257 0.0 0.0 0.00 0.00 0.00 62 1016.1
20200403043016 48 257 0.0 0.0 0.00 0.00 0.00 60 1016.0
20200403042509 49 229 0.0 1.0 0.00 0.00 0.00 58 1015.8
20200403042010 48 229 0.0 3.0 0.00 0.00 0.00 58 1015.8
20200403041510 49 229 1.0 3.0 0.00 0.00 0.00 58 1016.0
20200403041011 49 170 0.0 2.0 0.00 0.00 0.00 58 1015.9
20200403040506 49 170 1.0 2.0 0.00 0.00 0.00 58 1015.9
20200403040004 49 170 1.0 3.0 0.00 0.00 0.00 58 1015.9
20200403035502 49 170 1.0 4.0 0.00 0.00 0.00 60 1015.9
20200403035006 50 40 0.0 2.0 0.00 0.00 0.00 59 1015.9
20200403034501 51 5 0.0 2.0 0.00 0.00 0.00 57 1015.9
20200403034004 52 298 1.0 3.0 0.00 0.00 0.00 52 1015.9
20200403033500 52 298 1.0 3.0 0.00 0.00 0.00 53 1015.8
20200403033156 52 298 1.0 4.0 0.00 0.00 0.00 53 1015.9
20200403032613 51 302 2.0 4.0 0.00 0.00 0.00 54 1016.0
20200403032106 50 300 1.0 3.0 0.00 0.00 0.00 54 1016.1
20200403031728 50 286 1.0 2.0 0.00 0.00 0.00 57 1016.0
20200403031059 49 284 0.0 2.0 0.00 0.00 0.00 58 1016.0
20200403030637 49 284 0.0 2.0 0.00 0.00 0.00 58 1016.1
20200403025559 48 276 0.0 4.0 0.00 0.00 0.00 59 1016.2
20200403025059 49 280 0.0 0.0 0.00 0.00 0.00 60 1016.2
20200403024644 49 280 0.0 0.0 0.00 0.00 0.00 59 1016.3
20200403024103 49 280 0.0 0.0 0.00 0.00 0.00 59 1016.2
20200403023558 49 355 0.0 2.0 0.00 0.00 0.00 59 1016.2
20200403023234 50 331 0.0 1.0 0.00 0.00 0.00 57 1016.3
20200403022605 51 331 0.0 0.0 0.00 0.00 0.00 55 1016.3
20200403022057 51 331 0.0 1.0 0.00 0.00 0.00 55 1016.3
20200403021743 51 286 0.0 2.0 0.00 0.00 0.00 53 1016.3
20200403021101 52 286 0.0 2.0 0.00 0.00 0.00 52 1016.3
20200403020603 52 286 0.0 2.0 0.00 0.00 0.00 52 1016.3
20200403020136 52 286 0.0 3.0 0.00 0.00 0.00 51 1016.3
20200403015604 53 287 1.0 3.0 0.00 0.00 0.00 50 1016.3
20200403015104 53 288 0.0 5.0 0.00 0.00 0.00 49 1016.3
20200403014704 54 288 1.0 5.0 0.00 0.00 0.00 48 1016.3
20200403014056 54 291 0.0 4.0 0.00 0.00 0.00 48 1016.3
20200403013555 54 292 1.0 4.0 0.00 0.00 0.00 48 1016.3
20200403013153 54 279 1.0 4.0 0.00 0.00 0.00 47 1016.2
20200403012555 55 279 1.0 4.0 0.00 0.00 0.00 46 1016.2
20200403012055 55 306 1.0 3.0 0.00 0.00 0.00 47 1016.1
20200403011733 55 313 1.0 4.0 0.00 0.00 0.00 46 1016.1
20200403011059 55 300 1.0 3.0 0.00 0.00 0.00 46 1016.1
20200403010553 55 322 1.0 4.0 0.00 0.00 0.00 46 1016.1
20200403010107 55 298 2.0 4.0 0.00 0.00 0.00 46 1016.0
20200403005553 55 302 0.0 3.0 0.00 0.00 0.00 46 1016.0
20200403005053 55 302 0.0 3.0 0.00 0.00 0.00 45 1015.8
20200403004602 55 273 1.0 6.0 0.00 0.00 0.00 45 1015.7
20200403004053 55 291 0.0 6.0 0.00 0.00 0.00 45 1015.7
20200403003558 55 274 0.0 2.0 0.00 0.00 0.00 44 1015.6
20200403003146 55 274 0.0 4.0 0.00 0.00 0.00 44 1015.5
20200403002553 56 273 1.0 4.0 0.00 0.00 0.00 44 1015.6
20200403002056 56 304 0.0 0.0 0.00 0.00 0.00 43 1015.5
20200403001604 56 304 0.0 3.0 0.00 0.00 0.00 43 1015.5
20200403001056 56 304 0.0 3.0 0.00 0.00 0.00 42 1015.5
20200403000608 57 24 0.0 3.0 0.00 0.00 0.00 42 1015.4
20200403000226 57 355 1.0 4.0 0.00 0.00 0.00 41 1015.3
20200402235551 57 315 0.0 2.0 0.00 0.00 0.00 41 1015.2
20200402235051 58 313 0.0 3.0 0.00 0.00 0.00 40 1015.0
20200402234658 58 313 0.0 4.0 0.00 0.00 0.00 41 1015.0
20200402234051 58 261 0.0 4.0 0.00 0.00 0.00 39 1015.0
20200402233550 59 311 1.0 4.0 0.00 0.00 0.00 38 1015.0
20200402233103 59 333 1.0 4.0 0.00 0.00 0.00 37 1014.9